Flag for U.S.A. Weather past 2 weeks in Paradise, Nevada, U.S.A.

Now
78 °F

Passing clouds.


Feels Like: 79 °F
Forecast: 81 / 94 °F
Wind: 5 mph from South

Location: McCarran International Airport

Current Time: Aug 20, 2014 at 4:00:22 AM

Latest Report: Aug 20, 2014 at 2:56 AM


Visibility: 10 mi

Pressure: 29.73 "Hg

Humidity: 45%

Dew point: 55 °F

Location of ParadiseLocation

Historic Weather in Paradise — Graph

°F

Paradise temperature yesterday

Maximum temperature yesterday: 90 °F (at 2:56 PM)
Minimum temperature yesterday: 79 °F (at 8:56 AM)
Average temperature yesterday: 85 °F

Past Weeks' High & Low Weather Summary

 TemperatureHumidityPressure
High107 °F (Aug 17, 2:56 PM)74% (Aug 5, 3:56 AM)29.97 "Hg (Aug 5, 3:56 AM)
Low74 °F (Aug 5, 3:56 AM)4% (Aug 15, 12:56 PM)29.62 "Hg (Aug 19, 5:56 PM)
Average90 °F24%29.80 "Hg
* Reported Aug 5 2:56 AM — Aug 20 2:56 AM, Paradise, Weather by CustomWeather, © 2014

Note: Actual official high and low records may vary slightly from our data, if they occured in-between our weather recording intervals... More about our weather records

Advertising

Paradise weather history for previous 24 hours

 ConditionsComfort  
Time TempWeatherWind HumidityBarometerVisibility
2:56 AM
Aug 20
78 °FPassing clouds.5 mph45%29.73 "Hg10 mi
1:56 AM79 °FPassing clouds.3 mph42%29.73 "Hg10 mi
12:56 AM80 °FPassing clouds.3 mph39%29.72 "Hg10 mi
11:56 PM
Aug 19
80 °FPassing clouds.6 mph41%29.71 "Hg10 mi
10:56 PM82 °FPassing clouds.3 mph37%29.70 "Hg10 mi
9:56 PM82 °FPassing clouds.5 mph40%29.69 "Hg10 mi
8:56 PM82 °FPassing clouds.3 mph40%29.67 "Hg10 mi
7:56 PM84 °FScattered clouds.9 mph37%29.65 "Hg10 mi
6:56 PM88 °FScattered clouds.10 mph33%29.62 "Hg10 mi
5:56 PM89 °FScattered clouds.7 mph31%29.62 "Hg10 mi
4:56 PM89 °FScattered clouds.9 mph35%29.64 "Hg10 mi
3:56 PM90 °FScattered clouds.15 mph38%29.65 "Hg10 mi
2:56 PM90 °FScattered clouds.17 mph35%29.66 "Hg10 mi
1:56 PM89 °FScattered clouds.8 mph36%29.69 "Hg10 mi
12:56 PM88 °FScattered clouds.12 mph39%29.72 "Hg10 mi
11:56 AM84 °FScattered clouds.6 mph49%29.75 "Hg10 mi
10:56 AM83 °FScattered clouds.7 mph53%29.78 "Hg10 mi
9:56 AM81 °FBroken clouds.13 mph56%29.77 "Hg10 mi
8:56 AM79 °FScattered clouds.12 mph62%29.75 "Hg10 mi
7:56 AM80 °FBroken clouds.13 mph60%29.73 "Hg10 mi
6:56 AM81 °FPassing clouds.7 mph56%29.71 "Hg10 mi
5:56 AM82 °FPassing clouds.10 mph51%29.68 "Hg10 mi
4:56 AM83 °FPassing clouds.14 mph51%29.66 "Hg10 mi
Weather by CustomWeather, © 2014

See weather overviewHow to use our weather pages